This is the latest recevied weather packets stored in our database for station/object W4NRG-1. If no packets are shown the sender has not sent any weather packets the latest 10 day(s).
| Time | Temp. | Humidity | Pressure | Rain* | Wind** | Luminosity | Snow |
|---|---|---|---|---|---|---|---|
| 1778268052 | 21.11° C | 40% | 1014.8 hPa | 0 mm | - | - | - |
| 1778267749 | 21.11° C | 33% | 1015 hPa | 0 mm | - | - | - |
| 1778267446 | 21.11° C | 37% | 1015.2 hPa | 0 mm | - | - | - |
| 1778267143 | 21.11° C | 37% | 1015.2 hPa | 0 mm | - | - | - |
| 1778266839 | 20.56° C | 38% | 1015.2 hPa | 0 mm | - | - | - |
| 1778266537 | 20.56° C | 37% | 1015.1 hPa | 0 mm | - | - | - |
| 1778266234 | 20.56° C | 40% | 1015.4 hPa | 0 mm | - | - | - |
| 1778265931 | 20.56° C | 38% | 1015.3 hPa | 0 mm | - | - | - |
| 1778265628 | 20.56° C | 37% | 1015.3 hPa | 0 mm | - | - | - |
| 1778265325 | 20.56° C | 44% | 1015.6 hPa | 0 mm | - | - | - |
| 1778265020 | 20.56° C | 38% | 1015.6 hPa | 0 mm | - | - | - |
| 1778264717 | 20.56° C | 39% | 1015.8 hPa | 0 mm | - | - | - |
| 1778264413 | 20.56° C | 38% | 1015.6 hPa | 0 mm | - | - | - |
| 1778264109 | 20.56° C | 37% | 1016 hPa | 0 mm | - | - | - |
| 1778263807 | 20.56° C | 37% | 1015.9 hPa | 0 mm | - | - | - |
| 1778263503 | 20° C | 38% | 1015.8 hPa | 0 mm | - | - | - |
| 1778263199 | 20° C | 37% | 1015.9 hPa | 0 mm | - | - | - |
| 1778262896 | 20° C | 37% | 1016.1 hPa | 0 mm | - | - | - |
| 1778262594 | 19.44° C | 39% | 1016 hPa | 0 mm | - | - | - |
| 1778262291 | 19.44° C | 36% | 1016 hPa | 0 mm | - | - | - |
| 1778261988 | 19.44° C | 40% | 1015.9 hPa | 0 mm | - | - | - |
| 1778261685 | 19.44° C | 38% | 1016 hPa | 0 mm | - | - | - |
| 1778261380 | 19.44° C | 39% | 1015.9 hPa | 0 mm | - | - | - |
| 1778261078 | 19.44° C | 40% | 1016.2 hPa | 0 mm | - | - | - |
| 1778260774 | 19.44° C | 42% | 1016.4 hPa | 0 mm | - | - | - |
* Rain latest hour (hover to see other rain measurements)
** Current wind speed in m/s (hover to see current wind gust speed)